Weather History for Valparaiso, FL

Change the Weather History Date:

Saturday, January 5, 2013

  Actual Average Record
Temperature  
Mean Temperature 46 °F -  
Max Temperature 53 °F 60 °F 78 °F (1968)
Min Temperature 40 °F 34 °F 19 °F (1999)
Degree Days  
Heating Degree Days 18    
Moisture  
Dew Point 34 °F    
Average Humidity 59    
Maximum Humidity 71    
Minimum Humidity 39    
Precipitation  
Precipitation 0.00 in - - ()
Sea Level Pressure  
Sea Level Pressure 30.31 in    
Wind  
Wind Speed 7 mph (NE)    
Max Wind Speed 13 mph    
Max Gust Speed -    
Visibility 10 miles    
Events Rain    
Averages and records for this station are not official NWS values.
T = Trace of Precipitation, MM = Missing Value Source: NWS Daily Summary

Daily Weather History Graph

Daily Weather History Graph

Search for Another Location

Airport:

Trip Planner

Search our weather history database for the weather conditions in past years. The results will help you decide how hot, cold, wet, or windy it might be!

Date:

Astronomy

Jan. 05, 2013 Rise Set
Actual Time 6:43 AM CST 4:59 PM CST
Civil Twilight 6:17 AM CST 5:25 PM CST
Nautical Twilight 5:47 AM CST 5:55 PM CST
Astronomical Twilight 5:18 AM CST 6:25 PM CST
Moon 12:04 AM CST (1/5) 11:36 AM CST (1/5)
Length of Visible Light 11h 08m
Length of Day
10h 15m
Last Quarter, 44% of the Moon is Illuminated
Jan 5
Last Quarter
Jan 11
New
Jan 18
First Quarter
Jan 26
Full
Feb 3
Last Quarter

Hourly Weather History & Observations

Time (CST) Temp. Windchill Dew Point Humidity Pressure Visibility Wind Dir Wind Speed Gust Speed Precip Events Conditions
12:55 AM 42.1 °F 39.2 °F 32.4 °F 68% 30.35 in 10.0 mi North 4.6 mph - N/A   Mostly Cloudy
1:55 AM 41.7 °F 37.3 °F 32.2 °F 69% 30.35 in 10.0 mi North 6.9 mph - N/A   Mostly Cloudy
2:55 AM 41.7 °F 36.7 °F 30.9 °F 66% 30.34 in 10.0 mi NNE 8.1 mph - N/A   Scattered Clouds
3:55 AM 41.0 °F 36.4 °F 30.2 °F 65% 30.35 in 10.0 mi NNE 6.9 mph - N/A   Scattered Clouds
4:55 AM 40.8 °F 36.9 °F 29.5 °F 64% 30.34 in 10.0 mi NNE 5.8 mph - N/A   Scattered Clouds
5:55 AM 42.4 °F 38.1 °F 28.4 °F 58% 30.36 in 10.0 mi NE 6.9 mph - N/A   Scattered Clouds
6:55 AM 42.8 °F 37.0 °F 27.5 °F 55% 30.36 in 10.0 mi NE 10.4 mph - N/A   Mostly Cloudy
7:55 AM 43.9 °F 38.8 °F 27.1 °F 52% 30.38 in 10.0 mi ENE 9.2 mph - N/A   Mostly Cloudy
8:55 AM 46.9 °F - 27.0 °F 46% 30.37 in 10.0 mi ENE 12.7 mph - N/A   Mostly Cloudy
9:55 AM 51.3 °F - 27.1 °F 39% 30.37 in 10.0 mi East 11.5 mph - N/A   Mostly Cloudy
10:55 AM 51.8 °F - 28.4 °F 41% 30.36 in 10.0 mi NE 6.9 mph - N/A   Mostly Cloudy
11:55 AM 53.1 °F - 28.9 °F 40% 30.33 in 10.0 mi NNE 8.1 mph - N/A   Overcast
12:55 PM 52.9 °F - 29.8 °F 41% 30.31 in 10.0 mi NNE 4.6 mph - N/A Rain Light Rain
1:33 PM 51.8 °F - 39.2 °F 62% 30.27 in 10.0 mi East 4.6 mph - N/A   Overcast
1:55 PM 50.9 °F - 38.3 °F 62% 30.27 in 10.0 mi East 6.9 mph - 0.00 in   Overcast
2:12 PM 51.8 °F - 37.4 °F 58% 30.26 in 10.0 mi ENE 4.6 mph - N/A Rain Light Rain
2:23 PM 51.8 °F - 37.4 °F 58% 30.26 in 10.0 mi East 4.6 mph - N/A   Overcast
2:55 PM 51.8 °F - 36.5 °F 56% 30.30 in 10.0 mi ENE 3.5 mph - 0.00 in   Overcast
3:49 PM 51.8 °F - 37.4 °F 58% 30.30 in 10.0 mi NNE 4.6 mph - N/A Rain Light Rain
3:55 PM 51.8 °F - 37.6 °F 58% 30.31 in 10.0 mi NNE 5.8 mph - 0.00 in Rain Light Rain
4:13 PM 51.8 °F - 39.2 °F 62% 30.30 in 10.0 mi Calm Calm - N/A   Overcast
4:55 PM 50.4 °F - 41.0 °F 70% 30.32 in 10.0 mi Calm Calm - 0.00 in   Overcast
5:55 PM 50.5 °F - 40.1 °F 67% 30.30 in 10.0 mi East 5.8 mph - N/A   Overcast
6:40 PM 50.0 °F - 41.0 °F 71% 30.32 in 10.0 mi North 5.8 mph - N/A   Light Drizzle
6:55 PM 50.4 °F - 41.0 °F 70% 30.32 in 10.0 mi North 8.1 mph - 0.00 in   Light Drizzle
7:55 PM 50.5 °F - 36.7 °F 59% 30.29 in 10.0 mi East 12.7 mph - 0.00 in   Light Drizzle
8:04 PM 50.0 °F - 35.6 °F 58% 30.27 in 10.0 mi East 12.7 mph - N/A   Overcast
8:55 PM 50.4 °F - 35.6 °F 57% 30.27 in 10.0 mi NE 8.1 mph - 0.00 in   Overcast
9:55 PM 48.9 °F - 36.3 °F 62% 30.27 in 10.0 mi North 3.5 mph - N/A   Overcast
10:55 PM 47.7 °F - 37.8 °F 69% 30.24 in 10.0 mi NE 5.8 mph - N/A   Overcast
11:55 PM 47.7 °F - 37.4 °F 68% 30.25 in 10.0 mi North 3.5 mph - N/A   Mostly Cloudy